Regional Weather Roundup
Issued by NWS

Home | Current Version | Previous Version | Text Only | Print | Product List | Glossary Off
Versions: 1 2 3 4 5 6 7 8 9 10 11 12 13 14 15 16 17 18 19 20 21 22 23 24 25 26 27 28 29 30 31 32 33 34 35 36 37 38 39 40 41 42 43 44 45 46 47 48 49 50

000
ASUS43 KMKX 251000
RWRWI

WISCONSIN REGIONAL WEATHER ROUNDUP
NATIONAL WEATHER SERVICE MILWAUKEE/SULLIVAN WI
400 AM CST SUN JAN 25 2015

NOTE: "FAIR" INDICATES FEW OR NO CLOUDS BELOW 12,000 FEET WITH NO
SIGNIFICANT WEATHER AND/OR OBSTRUCTIONS TO VISIBILITY.

WIZ001-002-006>008-014>016-023>028-251100-
NORTHWEST WISCONSIN

CITY           SKY/WX    TMP DP  RH WIND       PRES   REMARKS
SUPERIOR ARPT  CLOUDY    21  14  73 E15       29.95R WCI   8
ASHLAND        CLOUDY    18   9  68 E5        29.95R WCI  11
HAYWARD        CLOUDY    15   7  70 NE9       29.88R WCI   3
SIREN          CLOUDY    20  13  75 NE8       29.88R WCI  11
CUMBERLAND     CLOUDY    19  12  73 NE16      29.83R WCI   5
RICE LAKE      CLOUDY    20  12  71 N15G21    29.85R WCI   6
CHETEK         CLOUDY    23  16  74 NE8       29.83R WCI  13
LADYSMITH      CLOUDY    20  14  78 NE9G18    29.85R WCI   9
EAU CLAIRE     CLOUDY    27  20  75 NE10      29.80R WCI  17
MENOMONIE      CLOUDY    29  21  71 NE14      29.80R WCI  18
NEW RICHMOND   CLOUDY    27  20  74 NE13G20   29.81R WCI  16
OSCEOLA        CLOUDY    26  17  71 N16       29.86R WCI  13
$$

WIZ003>005-009-010-017-018-251100-
NORTH CENTRAL WISCONSIN

CITY           SKY/WX    TMP DP  RH WIND       PRES   REMARKS
MANITOWISH WTR MOCLDY    10   7  89 NE5       29.85R WCI   1
ARBOR VITAE    MOCLDY    14  10  82 NE3       29.84R
WOODRUFF       MOCLDY    14  10  82 NE3       29.84R
RHINELANDER    CLOUDY    14   7  73 NE7       29.84R WCI   4
EAGLE RIVER    CLOUDY    14   7  75 NE8       29.84R WCI   3
LAND O LAKES   FLURRIES  13  10  86 NE3       29.85R
PHILLIPS       CLOUDY    13   8  79 NE6       29.84R WCI   4
TOMAHAWK       CLOUDY    14   8  76 CALM      29.84R
MEDFORD        CLOUDY    20  14  79 NE13      29.79S WCI   7
MERRILL        CLOUDY    17  10  74 NE9G17    29.83R WCI   6
$$

WIZ029-030-035-036-043>047-251100-
CENTRAL WISCONSIN

CITY           SKY/WX    TMP DP  RH WIND       PRES   REMARKS
WAUSAU         CLOUDY    19  11  70 NE12      29.81R WCI   7
MOSINEE        CLOUDY    23  19  86 NE13      29.80R WCI  11
MARSHFIELD     CLOUDY    27  20  75 E16       29.78R WCI  15
STEVENS POINT  CLOUDY    21  14  75 NE13      29.82R WCI   8
WAUPACA        CLOUDY    24  14  67 NE7G18    29.84R WCI  15
WAUTOMA        NOT AVBL
WISC RAPIDS    CLOUDY    23  15  71 E9G22     29.81R WCI  13
CAMP DOUGLAS   NOT AVBL
$$

WIZ011>013-019>022-031-037>040-048>050-251100-
NORTHEAST WISCONSIN

CITY           SKY/WX    TMP DP  RH WIND       PRES   REMARKS
ANTIGO         CLOUDY    16  10  77 NE14      29.82S WCI   1
SHAWANO        CLOUDY    22  13  68 NE13      29.86S WCI  10
OCONTO         CLOUDY    21  12  69 MISG      29.88R
STURGEON BAY   CLOUDY    19  10  68 N13       29.89R WCI   7
GREEN BAY      CLOUDY    21  14  74 NE16G30   29.85S WCI   7
MANITOWOC      NOT AVBL
APPLETON       CLOUDY    21  14  73 NE20G26   29.83R WCI   6
CLINTONVILLE   CLOUDY    21  14  73 NE13G20   29.85R WCI   9
OSHKOSH        CLOUDY    22  14  71 NE20      29.81S WCI   7
$$

WIZ032>034-041-042-053>061-251100-
SOUTHWEST WISCONSIN

CITY           SKY/WX    TMP DP  RH WIND       PRES   REMARKS
LA CROSSE      CLOUDY    33  28  81 E13G22    29.73R WCI  24
SPARTA         CLOUDY    29  25  86 E14G20    29.76R WCI  18
VIROQUA        CLOUDY    31  31 100 E21       29.68R WCI  19
BOSCOBEL       LGT SNOW  34  31  88 E10G17    29.69R FOG     WCI  26
PRAIRIE DU CHI CLOUDY    35  30  82 E13       29.65S WCI  26
PLATTEVILLE    CLOUDY    33  31  92 NE18      29.63S WCI  22
$$

WIZ056-057-062-063-064-067-068-251100-
SOUTH CENTRAL WISCONSIN

CITY           SKY/WX    TMP DP  RH WIND       PRES   REMARKS
REEDSBURG      LGT RAIN  27  24  87 NE12G20   29.74R WCI  17
BARABOO/DELLS  MIX PCPN  25  21  85 NE15G24   29.75R WCI  13
LONE ROCK      LGT SNOW  31  28  89 E16       29.72R FOG     WCI  20
MINERAL POINT  CLOUDY    34  32  93 E16       29.65S WCI  23
MADISON        CLOUDY    28  22  78 NE18G28   29.74R WCI  15
MIDDLETON      CLOUDY    31  28  88 NE17G23   29.73R WCI  19
WATERTOWN      CLOUDY    28  24  86 NE14G23   29.74R WCI  17
MONROE         CLOUDY    32  32 100 NE15      29.67R FOG     WCI  22
JANESVILLE     CLOUDY    32  30  93 NE17G25   29.70R WCI  21
$$

WIZ051-052-058>065-066-070>072-251100-
SOUTHEAST WISCONSIN

CITY           SKY/WX    TMP DP  RH WIND       PRES   REMARKS
MILWAUKEE      FLURRIES  30  24  78 NE22G31   29.76R WCI  17
WAUKESHA       CLOUDY    28  23  80 NE15G26   29.75R WCI  17
MILWAUKEE/TIMM CLOUDY    30  23  74 NE16G28   29.77R WCI  19
RACINE         CLOUDY    31  26  82 N18G28    29.75R WCI  19
BURLINGTON     CLOUDY    28  26  89 NE15G26   29.72R WCI  17
KENOSHA        CLOUDY    31  27  85 NE16      29.72R WCI  20
FOND DU LAC    CLOUDY    24  16  71 NE16G24   29.81R WCI  11
SHEBOYGAN      CLOUDY    25  18  74 N12G24    29.80R WCI  14
WEST BEND      CLOUDY    27  21  80 NE17G24   29.77R WCI  14
JUNEAU         CLOUDY    26  21  82 NE14G22   29.77R WCI  14
$$

LSZ147-162-251100-
LAKE SUPERIOR

STATION/POSITION TIME  TEMP    WIND        PRES    WAVE
                       AIR SEA DIR/SP/G            HT/PER
                 (UTC) (F)     (DEG/KT/KT) (MB)    (FT/S)
DEVILS ISLAND    0900   20      40/ 23/ 25 1015.5R
PORT WING        0900   22      50/ 15/ 20 1013.9R
SAXON HARBOR     0900   18        CALM     1013.5R
$$

LMZ867-665-643>646-251100-
LAKE MICHIGAN

STATION/POSITION TIME  TEMP    WIND        PRES    WAVE
                       AIR SEA DIR/SP/G            HT/PER
                 (UTC) (F)     (DEG/KT/KT) (MB)    (FT/S)
NORTHPORT PIER   0904   20      20/ 12/ 20 1012.5R
KEWAUNEE LAKESHO 0900   22      10/ 10/ 16 1009.7R
SHEBOYGAN LAKESH 0900   28      20/ 26/ 29 1009.6R
PORT WASHINGTON  0925   30      30/ 16/ 26 1009.5R
MILWAUKEE LAKESH 0900   31      30/ 24/ 28   N/A
KENOSHA   LAKESH 0900   32      30/ 22/ 25 1006.1R
$$

TC  - TEMPERATURE IN CELSIUS
VSB - VISIBILITY IN STATUTE MILES
WCI - WIND CHILL INDEX
HX  - HEAT INDEX




USA.gov is the U.S. government's official web portal to all federal, state and local government web resources and services.